Vorticity
8 7 6 7 6 7 6 7 9 12 11 10 8 6 6 7 7 8 8 9 9 9 8 6 5 6 6 7 7 7 7 8 6 5 5 5 6 8 8 9 9 5 5
9 10 10 9 8 7 6 5 6 7 7 9 13 12 10 8 7 7 9 9 8 7 6 6 5 5 5 5 5 7 7 7 7 5 5 6 7 7 9 8 8 7 5
9 10 9 6 7 9 6 6 6 6 6 7 6 7 8 9 12 11 11 10 8 7 8 9 9 8 7 7 7 8 9 9 7 6 7 8 9 12 12 9 10 9 8
4 3 -1 -2 -4 3 6 6 6 7 7 6 6 7 10 9 8 10 10 11 11 10 12 12 8 8 7 8 9 9 9 9 7 6 8 10 10 10 11 10 10 10 11
14 10 6 8 5 10 17 8 5 5 7 9 10 8 7 5 4 5 5 6 6 6 7 8 11 14 12 11 9 9 9 9 9 9 9 9 11 10 9 8 8 10 10
7 5 7 25 15 19 21 15 9 8 7 9 7 7 5 4 8 11 9 11 11 10 9 8 8 10 10 15 13 11 11 11 9 9 12 12 11 13 10 10 10 12 10
0 13 8 8 12 36 30 18 12 11 10 9 6 9 2 6 8 10 10 9 9 6 8 9 12 11 9 10 11 14 11 11 12 14 14 11 15 18 15 11 12 11 11
3 -2 7 10 3 8 2 1 5 5 6 12 7 5 6 8 7 10 9 9 7 6 7 11 11 11 10 13 13 12 14 13 13 11 11 10 9 11 12 12 11 11 11
5 8 3 5 -2 6 2 12 9 6 4 5 7 8 11 12 11 11 9 9 7 8 12 12 10 9 12 13 14 13 11 13 11 11 9 11 11 11 11 11 10 10 9
33 -2 -1 5 4 1 5 0 18 1 6 3 2 10 11 8 5 8 10 13 16 17 14 14 12 11 15 14 14 14 13 12 10 9 7 10 11 12 10 11 10 10 9
1 3 5 5 4 3 20 17 27 9 5 9 6 8 6 8 11 11 9 12 12 12 12 16 11 14 15 15 14 12 12 11 15 12 9 6 4 6 6 8 8 8 8
6 4 12 -1 15 33 18 13 9 12 9 10 10 10 12 13 8 12 16 15 15 18 16 21 14 12 14 14 12 13 11 10 11 12 13 10 7 6 6 5 6 7 9
0 16 -8 17 13 12 18 38 18 13 11 11 10 10 8 11 17 12 12 17 12 12 14 15 15 13 13 14 10 11 12 11 10 10 12 12 10 9 8 8 8 7 8
8 8 0 -4 18 2 7 10 11 11 12 12 10 12 9 9 8 11 12 12 9 11 13 12 13 13 15 14 12 11 11 12 11 10 10 11 11 11 11 12 10 9 8
-5 12 33 17 10 9 10 10 9 9 7 8 7 7 10 11 11 12 9 6 17 10 11 13 12 10 10 10 12 12 10 10 10 11 10 9 9 9 11 12 12 11 11
12 28 15 13 9 5 6 8 12 6 21 9 9 5 13 8 10 17 10 11 13 14 13 12 16 10 8 9 10 10 11 12 12 12 11 11 11 10 10 11 12 13 13
8 12 11 8 7 7 7 10 11 13 13 10 13 13 6 11 6 5 12 6 7 3 2 4 8 13 13 17 7 3 3 3 4 8 12 12 12 12 12 13 11 11 12
16 11 8 5 6 8 9 12 10 10 8 11 10 9 8 7 2 14 9 4 9 11 0 1 4 7 12 13 9 13 24 24 23 17 33 12 6 15 14 15 15 8 12
4 8 1 3 8 10 10 9 10 9 11 13 9 7 11 14 16 11 11 14 13 16 15 5 7 11 13 9 8 12 12 12 13 11 12 11 15 14 12 14 4 6 12
10 -0 5 7 13 8 7 12 9 12 7 10 10 12 8 11 11 7 7 10 3 18 22 13 13 19 14 10 14 11 12 13 10 10 8 8 13 14 13 15 13 11 11
-0 3 11 10 8 9 8 8 12 6 8 3 3 3 1 4 9 11 11 10 20 -5 3 -23 1 5 5 16 -2 7 22 19 23 19 16 16 19 15 14 17 15 15 14
0 10 10 8 13 11 8 11 10 6 6 7 7 8 8 8 9 11 13 13 14 16 1 10 -2 15 9 16 12 -2 29 -11 13 19 16 3 11 15 16 10 12 14 13
11 11 12 10 9 10 7 7 8 7 7 7 7 7 8 8 10 11 11 12 11 12 13 12 16 17 10 2 4 3 -14 3 2 -3 46 3 -12 1 13 17 14 15 13
11 9 8 8 8 9 9 8 5 7 9 10 12 12 13 13 12 11 11 13 11 12 12 13 10 10 13 17 10 -8 12 2 2 10 -8 -19 -7 -25 1 18 16 1 -1
7 7 10 9 8 8 7 9 10 11 11 13 13 15 15 15 14 15 15 14 13 14 13 13 14 14 15 14 14 17 13 16 16 11 7 -1 -1 -1 5 -4 15 -1 -4
8 8 9 9 10 10 10 11 11 13 16 17 17 16 15 14 14 15 14 14 16 14 15 15 16 16 16 15 16 15 14 13 13 12 14 12 20 18 13 10 6 -3 15
Height
5897 5898 5899 5899 5898 5898 5897 5897 5897 5896 5896 5895 5895 5894 5893 5892 5892 5892 5892 5891 5890 5889 5889 5887 5887 5886 5886 5886 5885 5884 5882 5880 5880 5878 5877 5876 5876 5876 5876 5875 5874 5875 5875
5898 5898 5898 5898 5897 5896 5896 5895 5895 5894 5894 5892 5892 5890 5889 5888 5887 5887 5887 5886 5886 5885 5884 5882 5881 5880 5880 5880 5879 5879 5878 5877 5875 5871 5870 5870 5870 5870 5870 5868 5868 5868 5868
5899 5898 5897 5896 5895 5894 5894 5892 5891 5891 5891 5890 5889 5888 5887 5886 5884 5883 5882 5881 5880 5879 5878 5877 5876 5874 5873 5872 5871 5871 5871 5870 5868 5867 5865 5863 5863 5864 5862 5861 5860 5860 5860
5896 5895 5894 5893 5892 5891 5890 5890 5889 5888 5887 5887 5886 5885 5883 5881 5880 5878 5878 5876 5875 5872 5871 5870 5868 5866 5865 5864 5863 5863 5862 5862 5861 5860 5859 5857 5855 5854 5855 5854 5852 5852 5853
5894 5892 5891 5889 5887 5886 5885 5884 5885 5884 5883 5882 5881 5880 5879 5878 5877 5875 5874 5871 5867 5865 5864 5862 5861 5859 5856 5855 5854 5854 5854 5853 5852 5851 5849 5848 5848 5846 5845 5846 5845 5845 5846
5890 5889 5887 5885 5882 5880 5878 5878 5878 5878 5878 5877 5877 5875 5873 5872 5872 5869 5865 5863 5859 5857 5855 5853 5852 5850 5847 5846 5845 5844 5844 5844 5843 5843 5841 5839 5838 5839 5836 5836 5837 5837 5838
5886 5884 5882 5880 5877 5874 5872 5873 5873 5873 5872 5870 5869 5868 5867 5864 5861 5859 5855 5853 5851 5849 5847 5844 5842 5840 5837 5836 5835 5835 5835 5835 5833 5834 5833 5832 5830 5830 5829 5828 5829 5829 5830
5880 5879 5878 5876 5874 5872 5871 5870 5869 5867 5866 5864 5863 5861 5858 5856 5852 5849 5846 5844 5842 5840 5837 5835 5832 5831 5829 5827 5825 5825 5825 5825 5824 5824 5824 5824 5824 5823 5823 5821 5821 5821 5822
5875 5875 5874 5873 5872 5870 5868 5865 5863 5861 5860 5857 5855 5852 5848 5847 5843 5841 5838 5836 5834 5831 5828 5825 5823 5820 5819 5818 5817 5816 5816 5816 5815 5815 5816 5817 5816 5816 5816 5815 5814 5813 5815
5865 5866 5865 5864 5863 5862 5861 5859 5857 5853 5851 5848 5846 5843 5840 5838 5835 5833 5829 5826 5823 5822 5819 5816 5813 5812 5810 5809 5808 5808 5808 5807 5807 5808 5807 5808 5808 5808 5808 5808 5806 5806 5806
5855 5856 5855 5854 5854 5851 5849 5848 5846 5844 5841 5840 5836 5834 5832 5829 5826 5823 5820 5817 5814 5812 5810 5807 5804 5801 5801 5800 5799 5799 5799 5799 5799 5799 5799 5799 5800 5800 5801 5800 5799 5798 5798
5844 5843 5844 5845 5844 5843 5839 5837 5836 5836 5833 5830 5828 5826 5823 5820 5816 5813 5810 5807 5805 5803 5800 5799 5796 5794 5792 5792 5790 5790 5789 5789 5789 5790 5790 5791 5791 5791 5791 5790 5790 5790 5789
5838 5839 5841 5837 5831 5831 5829 5827 5827 5825 5824 5821 5819 5815 5812 5812 5809 5803 5800 5799 5797 5794 5792 5790 5788 5785 5784 5783 5781 5780 5780 5780 5780 5780 5781 5781 5781 5781 5781 5781 5780 5779 5779
5830 5832 5832 5828 5823 5823 5822 5822 5819 5817 5815 5811 5808 5806 5803 5802 5801 5798 5793 5790 5788 5786 5783 5781 5779 5777 5776 5774 5773 5772 5771 5771 5771 5771 5772 5771 5771 5771 5770 5770 5770 5769 5768
5823 5822 5819 5816 5816 5815 5814 5812 5810 5809 5805 5803 5801 5798 5795 5793 5790 5788 5786 5783 5780 5777 5774 5772 5770 5768 5766 5765 5765 5764 5762 5762 5761 5762 5762 5761 5761 5760 5760 5759 5758 5758 5758
5812 5811 5809 5807 5809 5808 5806 5804 5801 5798 5797 5794 5791 5789 5786 5783 5781 5778 5775 5774 5772 5768 5765 5762 5760 5759 5757 5756 5756 5755 5754 5754 5753 5752 5751 5750 5750 5749 5748 5748 5748 5747 5747
5805 5803 5802 5800 5800 5799 5799 5796 5793 5791 5788 5784 5782 5780 5777 5774 5771 5768 5767 5764 5762 5760 5757 5754 5752 5750 5747 5745 5744 5744 5743 5742 5743 5742 5741 5739 5739 5738 5737 5737 5736 5736 5736
5796 5796 5794 5793 5792 5790 5788 5786 5783 5780 5777 5777 5774 5771 5767 5763 5761 5759 5755 5753 5751 5749 5747 5745 5742 5739 5737 5735 5734 5732 5731 5730 5730 5729 5728 5727 5727 5726 5726 5726 5725 5725 5725
5786 5788 5787 5784 5782 5780 5778 5776 5773 5770 5768 5764 5761 5759 5757 5755 5753 5748 5745 5743 5741 5739 5736 5733 5730 5728 5726 5724 5722 5720 5719 5718 5717 5717 5716 5715 5714 5714 5714 5713 5713 5714 5713
5781 5781 5778 5773 5772 5770 5769 5766 5763 5761 5758 5755 5752 5749 5745 5743 5740 5737 5736 5732 5730 5726 5723 5721 5719 5717 5716 5714 5712 5710 5708 5707 5705 5704 5703 5702 5702 5702 5702 5701 5701 5700 5700
5771 5771 5770 5767 5763 5761 5758 5755 5753 5751 5747 5745 5740 5738 5735 5732 5728 5724 5722 5721 5718 5715 5712 5709 5706 5705 5703 5702 5701 5699 5698 5695 5694 5693 5692 5691 5690 5689 5688 5688 5688 5688 5688
5764 5762 5759 5756 5754 5751 5748 5744 5742 5739 5737 5733 5728 5725 5722 5718 5714 5711 5708 5705 5703 5702 5699 5696 5695 5693 5691 5690 5690 5689 5686 5683 5682 5682 5681 5679 5679 5677 5677 5675 5675 5676 5675
5753 5752 5749 5746 5743 5740 5736 5733 5730 5725 5722 5718 5715 5710 5707 5703 5699 5696 5692 5689 5686 5685 5682 5680 5678 5677 5677 5675 5673 5675 5673 5671 5671 5670 5668 5668 5666 5665 5665 5664 5663 5663 5663
5743 5739 5736 5733 5730 5727 5722 5718 5715 5711 5708 5703 5699 5694 5690 5686 5683 5679 5676 5673 5670 5667 5665 5663 5661 5659 5657 5656 5655 5656 5657 5656 5657 5657 5656 5654 5652 5650 5653 5653 5652 5651 5651
5731 5728 5724 5720 5716 5712 5707 5702 5698 5693 5689 5685 5681 5677 5673 5669 5664 5662 5659 5655 5652 5650 5647 5645 5643 5642 5639 5636 5636 5637 5637 5638 5638 5638 5637 5636 5637 5638 5638 5637 5638 5639 5638
5718 5714 5710 5705 5701 5696 5691 5686 5681 5676 5672 5667 5663 5659 5655 5649 5646 5643 5639 5636 5635 5630 5628 5626 5624 5622 5619 5616 5617 5616 5615 5615 5615 5615 5616 5616 5617 5618 5618 5621 5623 5623 5624